THORAD AGENA D DEB

Satellite information

Favourite Embed

Satellite Type and Status

DEBRISIN ORBIT

Key statistics

Satellite THORAD AGENA D DEB at a glance.

Uptime

20429

Days in orbit

Revolutions

≈ 14.2

Per day

Orbit

LEO

Low Earth Orbit

Inclination

70.3

Latest

Satellite identification and parameters

Extended collection of information and parameters for THORAD AGENA D DEB.

Object identification

Identified? True

Debris? True

Object name: THORAD AGENA D DEB

International designator: 1969-082T

Object number (NORAD): 4149

Object ID (CCSDS): 4149

Country: UNITED STATES OF AMERICA (US)

Current information (Y/N): Y

RCS size: SMALL

Orbital parameters

Period: 101.445 minutes

Inclination: 70.304 deg

SMA: 7205.201 km

Apoapsis: 851.202 km

Periapsis: 802.93 km

RAAN: 209.9553 deg

Eccentricy: 0.00334981

Argument of periapsis: 106.5902 deg

Mean anomaly: 253.8902 deg

Mean motion: 14.19494053 rev/day

Mean motion (dot): 0.00001279 rev/day2

B* drag term: 0.000628605 1/REarth

Two-line elements (TLE)

Creation date: Sept. 3, 2025, 2:21 a.m.

Reference frame: TEME

Reference center: EARTH

Epoch: Sept. 2, 2025, 10:35 p.m. UTC

TLE line 0: 0 THORAD AGENA D DEB

TLE line 1: 1 04149U 69082T 25245.94143324 .00001279 00000-0 62860-3 0 9995

TLE line 2: 2 04149 70.3040 209.9553 0033498 106.5902 253.8902 14.19494053877794

Live tracking on map

Real-time ground track for satellite THORAD AGENA D DEB.

In-orbit conjunctions

A list of the most updated potential collisions computed for object THORAD AGENA D DEB.

Target Orbit TCA Probability of collision Miss distance Type
FENGYUN 1C DEB SSO 2024-10-09 20:56:48 0.0002318507 28.0 (m) DEBRIS
CZ-6A DEB SSO 2024-07-22 16:16:35 0.0002563493 92.0 (m) DEBRIS

Associated space launch

Poppy was the follow-on ELINT system, which succeeded the Grab ELINT satellite system.

THORAD AGENA D DEB was lifted into orbit during the mission ‘Thorad SLV-2G Agena D | Poppy 8A,B,C,D’, on board a Thorad SLV-2G Agena D space rocket.

The launch took place on Sept. 30, 1969, 1:40 p.m. from Space Launch Complex 1W.

For more information about the launch, click the button.

Launch to space Thorad SLV-2G Agena D | Poppy 8A,B,C,D
Thorad SLV-2G Agena D | Poppy 8A,B,C,D

Agency: N/A

Status: Launch Successful

Launch date: Sept. 30, 1969, 1:40 p.m. UTC

Rocket: Thorad SLV-2G Agena D

Launch pad: Space Launch Complex 1W

Location: Vandenberg SFB, CA, USA

...

Latest news about this satellite

There are no fresh news available about this satellite. Check back as we update our databases every day.


Newsletter sign-up

Weekly statistics, charts and insights to help you stay on top of the space industry.